Date String (YYYY-MM-DD hh:mm:ss) UTC,Instrument flags,Ambient pressure (hPa),Sample flow (lpm),Bypass flow (lpm),Sample temperature (°C),Ambient temperature (°C),ASC tube jacket temperature (°C),LED temperature (°C),Box temperature (°C),Sample RH (%),Span deviation,Mass concentration (μg/m³),Mass concentration (μg/m³),Mass concentration (μg/m³)
DateTimeUTC,F1_M11,P_M11,Q1_M11,Q2_M11,T1_M11,T2_M11,T3_M11,T4_M11,T5_M11,U1_M11,ZSPAN_M11,X2_M11,X0_M11,X1_M11
2023-04-28 23:00:00,,0832.8,5.00,0.00,26.1,25.1,00.0,34.4,27.7,11.9,0000.0,0003.40,0007.28,0002.34
2023-04-28 23:01:00,,0832.8,5.00,0.00,26.1,25.0,00.0,34.5,27.7,11.8,0000.0,0003.42,0007.40,0002.39
2023-04-28 23:02:00,,0832.8,5.02,0.00,26.1,25.0,00.0,34.5,27.7,11.3,0000.0,0003.48,0007.62,0002.42
2023-04-28 23:03:00,,0832.8,5.00,0.00,26.1,24.9,00.0,34.5,27.7,11.7,0000.0,0003.53,0007.98,0002.45
2023-04-28 23:04:00,,0832.8,5.00,0.00,26.1,24.9,00.0,34.5,27.7,11.8,0000.0,0003.54,0008.78,0002.49
2023-04-28 23:05:00,,0832.8,5.00,0.00,26.1,24.9,00.0,34.5,27.7,12.1,0000.0,0003.54,0009.12,0002.52
2023-04-28 23:06:00,,0832.8,5.00,0.00,26.1,24.9,00.0,34.5,27.7,11.8,0000.0,0003.56,0009.19,0002.55
2023-04-28 23:07:00,,0832.8,5.00,0.00,26.1,24.9,00.0,34.5,27.7,11.4,0000.0,0003.60,0009.50,0002.59
2023-04-28 23:08:00,,0832.8,4.99,0.00,26.1,24.9,00.0,34.5,27.7,11.4,0000.0,0003.66,0009.67,0002.63
2023-04-28 23:09:00,,0832.8,5.00,0.00,26.1,24.9,00.0,34.5,27.7,11.3,0000.0,0003.66,0009.57,0002.65
2023-04-28 23:10:00,,0832.8,5.01,0.00,26.1,24.8,00.0,34.5,27.7,11.6,0000.0,0003.65,0009.94,0002.67
2023-04-28 23:11:00,,0832.8,5.01,0.00,26.1,24.8,00.0,34.5,27.7,11.4,0000.0,0003.63,0009.68,0002.68
2023-04-28 23:12:00,,0832.8,5.00,0.00,26.1,24.8,00.0,34.5,27.7,11.7,0000.0,0003.63,0009.60,0002.67
2023-04-28 23:13:00,,0832.8,4.99,0.00,26.1,24.8,00.0,34.5,27.7,11.1,0000.0,0003.63,0009.49,0002.66
2023-04-28 23:14:00,,0832.8,5.00,0.00,26.1,24.8,00.0,34.5,27.7,10.9,0000.0,0003.58,0009.44,0002.63
2023-04-28 23:15:00,,0832.8,5.00,0.00,26.1,24.8,00.0,34.5,27.7,11.1,0000.0,0003.53,0008.63,0002.63
2023-04-28 23:16:00,,0832.8,5.00,0.00,26.2,24.9,00.0,34.5,27.8,11.3,0000.0,0003.51,0008.96,0002.63
2023-04-28 23:17:00,,0832.8,5.00,0.00,26.2,25.0,00.0,34.5,27.8,11.1,0000.0,0003.49,0009.09,0002.62
2023-04-28 23:18:00,,0832.8,5.00,0.00,26.2,25.1,00.0,34.5,27.8,11.4,0000.0,0003.51,0009.50,0002.63
2023-04-28 23:19:00,,0833.0,5.00,0.00,26.2,25.1,00.0,34.6,27.8,11.5,0000.0,0003.50,0009.76,0002.60
2023-04-28 23:20:00,,0833.0,5.00,0.00,26.3,25.2,00.0,34.6,27.8,11.4,0000.0,0003.51,0010.20,0002.57
2023-04-28 23:21:00,,0832.8,5.00,0.00,26.3,25.3,00.0,34.6,27.8,11.4,0000.0,0003.50,0009.85,0002.57
2023-04-28 23:22:00,,0833.0,5.00,0.00,26.3,25.3,00.0,34.6,27.9,11.4,0000.0,0003.58,0009.85,0002.55
2023-04-28 23:23:00,,0832.8,5.00,0.00,26.3,25.3,00.0,34.6,27.9,11.1,0000.0,0003.60,0010.02,0002.54
2023-04-28 23:24:00,,0832.8,5.00,0.00,26.3,25.3,00.0,34.6,27.9,11.0,0000.0,0003.61,0010.45,0002.55
2023-04-28 23:25:00,,0832.8,5.00,0.00,26.4,25.3,00.0,34.6,27.9,11.2,0000.0,0003.61,0011.15,0002.57
2023-04-28 23:26:00,,0832.8,5.00,0.00,26.4,25.3,00.0,34.7,27.9,11.3,0000.0,0003.61,0011.08,0002.57
2023-04-28 23:27:00,,0832.8,5.00,0.00,26.4,25.3,00.0,34.7,28.0,11.6,0000.0,0003.63,0010.59,0002.55
2023-04-28 23:28:00,,0832.8,5.00,0.00,26.4,25.3,00.0,34.7,28.0,11.7,0000.0,0003.60,0010.01,0002.51
2023-04-28 23:29:00,,0832.8,5.00,0.00,26.4,25.3,00.0,34.7,28.0,11.7,0000.0,0003.57,0009.57,0002.48
2023-04-28 23:30:00,,0832.8,4.99,0.00,26.4,25.2,00.0,34.7,28.0,11.3,0000.0,0003.55,0009.03,0002.47
2023-04-28 23:31:00,,0832.8,5.00,0.00,26.4,25.2,00.0,34.7,28.0,11.3,0000.0,0003.55,0008.58,0002.47
2023-04-28 23:32:00,,0832.8,5.00,0.00,26.4,25.2,00.0,34.7,28.0,11.2,0000.0,0003.58,0008.67,0002.47
2023-04-28 23:33:00,,0832.8,5.02,0.00,26.4,25.2,00.0,34.7,28.0,11.4,0000.0,0003.51,0009.14,0002.46
2023-04-28 23:34:00,,0832.8,5.00,0.00,26.4,25.1,00.0,34.7,28.0,11.2,0000.0,0003.50,0009.14,0002.47
2023-04-28 23:35:00,,0832.8,5.00,0.00,26.4,25.1,00.0,34.8,28.0,11.3,0000.0,0003.49,0008.77,0002.46
2023-04-28 23:36:00,,0832.8,4.99,0.00,26.4,25.1,00.0,34.8,28.0,11.4,0000.0,0003.49,0008.02,0002.46
2023-04-28 23:37:00,,0832.9,4.99,0.00,26.4,25.1,00.0,34.8,28.0,11.2,0000.0,0003.50,0008.26,0002.46
2023-04-28 23:38:00,,0832.8,5.00,0.00,26.4,25.1,00.0,34.8,28.0,11.2,0000.0,0003.49,0008.29,0002.48
2023-04-28 23:39:00,,0833.0,5.01,0.00,26.4,25.1,00.0,34.8,28.0,11.1,0000.0,0003.55,0008.64,0002.50
2023-04-28 23:40:00,,0833.3,5.00,0.00,26.4,25.2,00.0,34.8,28.0,11.2,0000.0,0003.56,0008.60,0002.52
2023-04-28 23:41:00,,0833.3,4.99,0.00,26.4,25.2,00.0,34.8,28.0,11.4,0000.0,0003.59,0008.67,0002.54
2023-04-28 23:42:00,,0833.1,4.99,0.00,26.4,25.2,00.0,34.8,28.0,11.1,0000.0,0003.59,0008.86,0002.55
2023-04-28 23:43:00,,0833.0,5.00,0.00,26.4,25.1,00.0,34.8,28.0,11.0,0000.0,0003.59,0009.46,0002.55
2023-04-28 23:44:00,,0832.9,5.00,0.00,26.4,25.1,00.0,34.8,28.0,11.1,0000.0,0003.60,0008.95,0002.56
2023-04-28 23:45:00,,0832.9,5.00,0.00,26.4,25.1,00.0,34.8,28.0,11.2,0000.0,0003.57,0008.66,0002.53
2023-04-28 23:46:00,,0833.1,5.02,0.00,26.4,25.1,00.0,34.8,28.0,11.3,0000.0,0003.59,0008.74,0002.54
2023-04-28 23:47:00,,0833.4,5.00,0.00,26.4,25.1,00.0,34.8,28.0,11.2,0000.0,0003.61,0008.79,0002.53
2023-04-28 23:48:00,,0833.4,5.00,0.00,26.4,25.1,00.0,34.8,28.0,11.2,0000.0,0003.60,0008.55,0002.51
2023-04-28 23:49:00,,0833.1,5.01,0.00,26.4,25.1,00.0,34.8,28.0,11.4,0000.0,0003.66,0008.53,0002.49
2023-04-28 23:50:00,,0832.9,5.00,0.00,26.5,25.2,00.0,34.8,28.0,11.3,0000.0,0003.64,0008.57,0002.48
2023-04-28 23:51:00,,0833.0,5.00,0.00,26.5,25.2,00.0,34.8,28.1,11.1,0000.0,0003.63,0008.79,0002.47
2023-04-28 23:52:00,,0833.0,4.99,0.00,26.5,25.2,00.0,34.9,28.1,11.3,0000.0,0003.63,0009.19,0002.45
2023-04-28 23:53:00,,0833.0,5.00,0.00,26.5,25.2,00.0,34.9,28.1,11.3,0000.0,0003.65,0009.29,0002.41
2023-04-28 23:54:00,,0832.9,4.99,0.00,26.5,25.2,00.0,34.9,28.1,11.0,0000.0,0003.66,0008.67,0002.41
2023-04-28 23:55:00,,0832.9,4.99,0.00,26.5,25.2,00.0,34.9,28.1,11.0,0000.0,0003.64,0008.47,0002.40
2023-04-28 23:56:00,,0832.9,5.02,0.00,26.5,25.2,00.0,34.9,28.1,11.0,0000.0,0003.68,0008.55,0002.41
2023-04-28 23:57:00,,0833.0,5.01,0.00,26.5,25.2,00.0,34.9,28.1,11.0,0000.0,0003.67,0008.61,0002.42
2023-04-28 23:58:00,,0832.9,4.99,0.00,26.5,25.2,00.0,34.9,28.1,11.4,0000.0,0003.67,0008.74,0002.43
2023-04-28 23:59:00,,0832.9,4.99,0.00,26.5,25.2,00.0,34.9,28.1,11.0,0000.0,0003.68,0009.39,0002.44
